sat.trackr.live / text

‹ back to catalog

STARLINK-34889

NORAD 65761 · 2025-216AD

PAYLOAD ACTIVE UNKNOWN

§ Identity

Operator
Country
US
Launch date
2025-09-25
Launch site
AFETR
Launch vehicle
Mass (kg)
RCS (m²)

Purposes: comms

External: N2YO · Heavens-Above · Gunter

§ Orbital elements

Epoch: 2026-09-20T05:44:34.382976Z

Period
93.85 min
Inclination
53.1549°
Eccentricity
0.0001209
Mean motion
15.34414279 rev/d
Perigee alt
461.8 km
Apogee alt
463.5 km
Semi-major
6,840.8 km
B*
3.7974e-4
RAAN
146.8381°
Arg perigee
74.3532°
Mean anomaly
285.7604°
Rev number
5,641

§ Raw data

STARLINK-348891 65761U 25216AD  26263.23928684  .00012481  00000+0  37974-3 0  99902 65761  53.1549 146.8381 0001209  74.3532 285.7604 15.34414279 56419

JSON: /api/v1/satellites/65761 · /tle

For live sub-satellite position, see the globe view (requires WebGL).

§ Visibility from observer

Set your observer location to see the next 7 days of passes ≥ 10°. The values pass through the URL so the page stays shareable.

No JS? Fill the form by hand. The geolocation button needs JavaScript.